Weather History for Freeport, IL

Change the Weather History Date:

Thursday, February 13, 2014

  Actual Average Record
Temperature  
Mean Temperature 24 °F -  
Max Temperature 33 °F 32 °F 57 °F (1976)
Min Temperature 14 °F 13 °F -11 °F (1986)
Degree Days  
Heating Degree Days 42    
Moisture  
Dew Point 16 °F    
Average Humidity 77    
Maximum Humidity 86    
Minimum Humidity 70    
Precipitation  
Precipitation 0.00 in - - ()
Sea Level Pressure  
Sea Level Pressure 29.73 in    
Wind  
Wind Speed 12 mph (SSW)    
Max Wind Speed 26 mph    
Max Gust Speed 36 mph    
Visibility 9 miles    
Events Snow    
Averages and records for this station are not official NWS values.
T = Trace of Precipitation, MM = Missing Value Source: NWS Daily Summary

Daily Weather History Graph

Daily Weather History Graph

Search for Another Location

Airport:

Trip Planner

Search our weather history database for the weather conditions in past years. The results will help you decide how hot, cold, wet, or windy it might be!

Date:

Astronomy

Feb. 13, 2014 Rise Set
Actual Time 6:57 AM CST 5:28 PM CST
Civil Twilight 6:28 AM CST 5:57 PM CST
Nautical Twilight 5:55 AM CST 6:30 PM CST
Astronomical Twilight 5:23 AM CST 7:02 PM CST
Moon 4:36 PM CST (2/13) 5:50 AM CST (2/13)
Length of Visible Light 11h 28m
Length of Day
10h 31m
Waxing Gibbous, 99% of the Moon is Illuminated
Feb 13
Waxing Gibbous
Feb 14
Full
Feb 22
Last Quarter
Mar 1
New
Mar 8
First Quarter

Hourly Weather History & Observations

Time (CST) Temp. Windchill Dew Point Humidity Pressure Visibility Wind Dir Wind Speed Gust Speed Precip Events Conditions
12:15 AM 21.2 °F 12.6 °F 15.8 °F 80% 29.97 in 10.0 mi SSE 6.9 mph - N/A   Overcast
12:35 AM 21.2 °F 13.6 °F 15.6 °F 79% 29.96 in 10.0 mi SSE 5.8 mph - N/A   Overcast
12:55 AM 21.2 °F 11.7 °F 15.6 °F 79% 29.95 in 10.0 mi South 8.1 mph - N/A   Overcast
1:15 AM 21.2 °F 12.6 °F 15.3 °F 78% 29.96 in 10.0 mi South 6.9 mph - N/A   Overcast
1:35 AM 21.2 °F 10.1 °F 15.6 °F 79% 29.94 in 10.0 mi South 10.4 mph - N/A   Overcast
1:55 AM 21.2 °F 11.7 °F 15.8 °F 80% 29.94 in 10.0 mi South 8.1 mph - N/A   Overcast
2:15 AM 21.2 °F 10.1 °F 15.3 °F 78% 29.94 in 10.0 mi South 10.4 mph - N/A   Overcast
2:35 AM 21.2 °F 8.3 °F 14.9 °F 77% 29.92 in 10.0 mi South 13.8 mph - N/A   Mostly Cloudy
2:55 AM 19.9 °F 7.9 °F 14.4 °F 79% 29.92 in 10.0 mi South 11.5 mph - N/A   Clear
3:15 AM 19.6 °F 7.4 °F 13.5 °F 77% 29.91 in 10.0 mi South 11.5 mph - N/A   Clear
3:35 AM 18.5 °F 7.5 °F 12.9 °F 79% 29.91 in 10.0 mi South 9.2 mph - N/A   Clear
3:55 AM 18.5 °F 6.8 °F 12.9 °F 79% 29.90 in 10.0 mi SSE 10.4 mph - N/A   Clear
4:15 AM 18.5 °F 9.3 °F 12.6 °F 78% 29.91 in 10.0 mi South 6.9 mph - N/A   Clear
4:35 AM 18.5 °F 7.5 °F 12.2 °F 76% 29.90 in 10.0 mi South 9.2 mph - N/A   Mostly Cloudy
4:55 AM 18.5 °F 6.1 °F 12.0 °F 76% 29.90 in 10.0 mi South 11.5 mph - N/A   Mostly Cloudy
5:15 AM 18.5 °F 5.5 °F 12.0 °F 76% 29.89 in 10.0 mi SSE 12.7 mph - N/A   Overcast
5:35 AM 18.5 °F 4.9 °F 11.5 °F 74% 29.87 in 10.0 mi SSE 13.8 mph - N/A   Scattered Clouds
5:55 AM 17.2 °F 2.7 °F 9.9 °F 73% 29.86 in 10.0 mi South 15.0 mph - N/A   Clear
6:15 AM 16.3 °F 1.0 °F 9.1 °F 73% 29.84 in 10.0 mi South 16.1 mph - N/A   Clear
6:35 AM 14.9 °F 2.3 °F 8.4 °F 76% 29.83 in 10.0 mi South 10.4 mph - N/A   Scattered Clouds
6:55 AM 14.7 °F 1.4 °F 8.4 °F 76% 29.83 in 10.0 mi South 11.5 mph - N/A   Clear
7:15 AM 16.2 °F 3.2 °F 9.5 °F 75% 29.82 in 10.0 mi South 11.5 mph - N/A   Clear
7:35 AM 16.2 °F 2.5 °F 9.5 °F 75% 29.82 in 10.0 mi South 12.7 mph - N/A   Mostly Cloudy
7:55 AM 18.5 °F 4.3 °F 11.7 °F 75% 29.80 in 10.0 mi South 15.0 mph - N/A   Overcast
8:15 AM 18.5 °F 5.5 °F 11.5 °F 74% 29.79 in 10.0 mi South 12.7 mph - N/A   Overcast
8:35 AM 18.5 °F 5.5 °F 10.8 °F 72% 29.78 in 10.0 mi South 12.7 mph - N/A   Overcast
8:55 AM 18.5 °F 3.3 °F 11.8 °F 75% 29.75 in 10.0 mi South 17.3 mph - N/A   Overcast
9:35 AM 19.9 °F 7.3 °F 11.7 °F 70% 29.76 in 10.0 mi SSW 12.7 mph - N/A   Overcast
9:55 AM 18.9 °F 5.3 °F 12.7 °F 77% 29.75 in 1.0 mi SSW 13.8 mph - N/A Snow Light Snow
10:15 AM 18.5 °F 5.5 °F 14.9 °F 86% 29.74 in 0.2 mi SSW 12.7 mph - N/A Snow Snow
10:35 AM 19.9 °F 7.9 °F 15.8 °F 84% 29.73 in 5.0 mi South 11.5 mph - N/A   Overcast
10:55 AM 21.2 °F 7.8 °F 14.5 °F 75% 29.71 in 7.0 mi South 15.0 mph 19.6 mph N/A   Overcast
11:15 AM 23.7 °F 11.0 °F 16.5 °F 74% 29.69 in 10.0 mi South 15.0 mph - N/A   Overcast
11:35 AM 24.8 °F 11.9 °F 17.8 °F 75% 29.66 in 10.0 mi South 16.1 mph - N/A   Mostly Cloudy
11:55 AM 26.2 °F 13.4 °F 20.1 °F 78% 29.65 in 5.0 mi SSW 17.3 mph - N/A   Haze
12:15 PM 26.6 °F 13.1 °F 19.8 °F 75% 29.62 in 7.0 mi SSW 19.6 mph - N/A   Scattered Clouds
12:35 PM 26.6 °F 13.8 °F 19.9 °F 76% 29.61 in 7.0 mi SSW 17.3 mph 21.9 mph N/A   Clear
12:55 PM 27.1 °F 14.9 °F 20.3 °F 75% 29.59 in 10.0 mi SSW 16.1 mph - N/A   Clear
1:35 PM 28.8 °F 17.0 °F 22.8 °F 78% 29.57 in 10.0 mi SSW 16.1 mph - N/A   Clear
1:55 PM 29.3 °F 17.7 °F 23.7 °F 80% 29.56 in 7.0 mi SSW 16.1 mph - N/A   Scattered Clouds
2:15 PM 31.3 °F 19.5 °F 26.1 °F 81% 29.54 in 7.0 mi SW 18.4 mph - N/A   Scattered Clouds
2:35 PM 30.2 °F 18.5 °F 25.3 °F 82% 29.54 in 7.0 mi SW 17.3 mph - N/A   Clear
2:55 PM 32.7 °F 22.5 °F 28.2 °F 83% 29.54 in 7.0 mi SW 15.0 mph - N/A   Scattered Clouds
3:15 PM 33.8 °F 23.2 °F 28.8 °F 82% 29.54 in 5.0 mi SW 17.3 mph 21.9 mph N/A   Haze
4:15 PM 33.8 °F 23.9 °F 29.1 °F 83% 29.52 in 5.0 mi SW 15.0 mph - N/A   Haze
4:55 PM 33.8 °F 23.9 °F 29.3 °F 84% 29.51 in 7.0 mi SW 15.0 mph - N/A   Overcast
5:55 PM 29.5 °F 15.8 °F 21.9 °F 73% 29.55 in 4.0 mi West 23.0 mph 35.7 mph N/A   Haze
6:15 PM 27.0 °F 11.6 °F 19.9 °F 75% 29.57 in 5.0 mi West 26.5 mph 29.9 mph N/A   Haze
6:35 PM 24.8 °F 10.7 °F 18.5 °F 77% 29.59 in 5.0 mi WNW 19.6 mph 33.4 mph N/A   Haze
6:55 PM 24.6 °F 10.9 °F 18.3 °F 77% 29.58 in 10.0 mi WNW 18.4 mph - N/A   Overcast
7:15 PM 24.4 °F 11.9 °F 18.5 °F 78% 29.59 in 10.0 mi WNW 15.0 mph - N/A   Overcast
7:35 PM 24.4 °F 11.0 °F 18.9 °F 79% 29.59 in 10.0 mi WNW 17.3 mph 25.3 mph N/A   Overcast
7:55 PM 23.5 °F 7.6 °F 16.7 °F 75% 29.61 in 7.0 mi WNW 24.2 mph 33.4 mph N/A   Overcast
8:15 PM 21.7 °F 6.7 °F 15.3 °F 76% 29.62 in 5.0 mi WNW 19.6 mph 31.1 mph N/A   Haze
8:35 PM 21.2 °F 5.6 °F 14.7 °F 76% 29.62 in 10.0 mi WNW 20.7 mph 27.6 mph N/A   Overcast
8:55 PM 21.2 °F 6.0 °F 14.9 °F 77% 29.63 in 10.0 mi WNW 19.6 mph 25.3 mph N/A   Overcast
9:15 PM 20.8 °F 7.3 °F 14.7 °F 77% 29.64 in 10.0 mi WNW 15.0 mph 25.3 mph N/A   Overcast
9:35 PM 21.2 °F 6.4 °F 14.9 °F 77% 29.64 in 10.0 mi WNW 18.4 mph 25.3 mph N/A   Overcast
9:55 PM 19.9 °F 3.5 °F 13.5 °F 76% 29.65 in 10.0 mi WNW 21.9 mph 26.5 mph N/A   Mostly Cloudy
10:15 PM 18.5 °F 4.9 °F 12.2 °F 76% 29.64 in 10.0 mi WNW 13.8 mph - N/A   Scattered Clouds
10:35 PM 18.5 °F 6.1 °F 12.4 °F 77% 29.65 in 10.0 mi WNW 11.5 mph 24.2 mph N/A   Clear
10:55 PM 16.2 °F 2.5 °F 10.2 °F 77% 29.66 in 10.0 mi West 12.7 mph - N/A   Clear
11:15 PM 16.2 °F 1.3 °F 10.4 °F 78% 29.66 in 10.0 mi WNW 15.0 mph 19.6 mph N/A   Clear
11:35 PM 14.9 °F 0.3 °F 9.3 °F 79% 29.67 in 10.0 mi West 13.8 mph - N/A   Clear
11:55 PM 14.0 °F -0.2 °F 8.4 °F 78% 29.66 in 10.0 mi West 12.7 mph 17.3 mph N/A   Clear